{"data":{"norad_id":64522,"epoch":"2026-09-21T20:59:31.857792Z","epoch_age_seconds":63465,"freshness":"FRESH","line1":"1 64522U 25134Y   26264.87467428  .00001821  00000+0  26777-3 0  9993","line2":"2 64522  51.8966  83.0161 0000829 123.9822 236.1219 14.79941222 69168","mean_motion":14.79941222,"eccentricity":8.29e-5,"inclination_deg":51.8966,"raan_deg":83.0161,"arg_perigee_deg":123.9822,"mean_anomaly_deg":236.1219,"bstar":0.00026777,"rev_number":6916,"period_min":97.301161599781,"perigee_km":628.92874056926,"apogee_km":630.09060838789,"semimajor_km":7007.6466744786,"source":"CELESTRAK","updated_at":"2026-09-22T09:00:29.812711Z"}}